Flag for Switzerland Weather past 2 weeks in Allschwil, Basel-Land, Switzerland

34 °F

Light rain. Passing clouds.

Feels Like: 31 °F
Forecast: 33 / 43 °F
Wind: 3 mph from Northwest

Location: Bale-Mulhouse

Current Time: Nov 25, 2015 at 7:48:37 AM

Latest Report: Nov 25, 2015 at 7:00 AM

Visibility: 2 mi

Pressure: 29.89 "Hg

Humidity: 93%

Dew point: 32 °F

Location of AllschwilLocation

Historic Weather in Allschwil — Graph


Allschwil temperature yesterday

Maximum temperature yesterday: 39 °F (at 1:30 PM)
Minimum temperature yesterday: 23 °F (at 5:30 AM)
Average temperature yesterday: 32 °F

Past Weeks' High & Low Weather Summary

High66 °F (Nov 15, 2:30 PM)100% (Nov 10, 8:00 AM)30.51 "Hg (Nov 10, 8:00 AM)
Low23 °F (Nov 24, 5:30 AM)42% (Nov 16, 1:00 PM)29.45 "Hg (Nov 21, 12:30 PM)
Average47 °F79%30.14 "Hg
* Reported Nov 10 6:00 AM — Nov 25 6:30 AM, Allschwil, Weather by CustomWeather, © 2015

Note: Actual official high and low records may vary slightly from our data, if they occured in-between our weather recording intervals... More about our weather records


Allschwil weather history for previous 24 hours

Time TempWeatherWind HumidityBarometerVisibility
6:30 AM
Wed, Nov 25
34 °FLight rain. Mostly cloudy.1 mph93%29.89 "Hg4 mi
6:00 AM34 °FLight rain. Mostly cloudy.3 mph93%29.89 "Hg4 mi
5:30 AM34 °FLight rain. Partly cloudy.3 mph93%29.89 "Hg4 mi
5:00 AM34 °FLight rain. Low clouds.7 mph93%29.89 "Hg2 mi
4:30 AM32 °FLight rain. Mostly cloudy.3 mph100%29.89 "Hg2 mi
4:00 AM32 °FLight snow. Ice fog.2 mph100%29.89 "Hg2 mi
3:30 AM32 °FLight snow. Ice fog.3 mph100%29.92 "Hg2 mi
3:00 AM32 °FLight snow. Ice fog.3 mph100%29.92 "Hg1 mi
2:30 AM32 °FSnow. Ice fog.1 mph100%29.92 "Hg1 mi
2:00 AM32 °FSnow. Ice fog.2 mph100%29.95 "Hg2 mi
1:30 AM34 °FSnow. Fog.2 mph93%29.95 "Hg1 mi
1:00 AM34 °FLight snow. Fog.No wind87%29.95 "Hg2 mi
12:30 AM34 °FLight snow. Mostly cloudy.3 mph87%29.98 "Hg6 mi
12:00 AM36 °FLight snow. Overcast.3 mph81%29.98 "HgN/A
11:30 PM
Tue, Nov 24
36 °FLight snow. Overcast.3 mph81%30.01 "HgN/A
11:00 PM36 °FOvercast.2 mph75%30.01 "HgN/A
10:30 PM37 °FPassing clouds.5 mph70%30.01 "HgN/A
10:00 PM37 °FPassing clouds.3 mph70%30.01 "HgN/A
9:30 PM36 °FPassing clouds.6 mph81%30.04 "HgN/A
9:00 PM36 °FPassing clouds.6 mph75%30.04 "HgN/A
8:30 PM36 °FPassing clouds.8 mph81%30.04 "HgN/A
8:00 PM36 °FClear.3 mph81%30.07 "Hg10 mi
7:30 PM36 °FPassing clouds.3 mph81%30.09 "HgN/A
7:00 PM36 °FClear.5 mph81%30.09 "Hg10 mi
6:30 PM34 °FClear.2 mph87%30.12 "Hg10 mi
6:00 PM34 °FClear.2 mph87%30.12 "Hg10 mi
5:30 PM36 °FClear.2 mph81%30.12 "Hg10 mi
5:00 PM36 °FClear.No wind70%30.12 "Hg10 mi
4:30 PM36 °FSunny.No wind75%30.15 "Hg10 mi
4:00 PM37 °FSunny.3 mph70%30.15 "Hg10 mi
3:30 PM37 °FSunny.3 mph70%30.15 "Hg10 mi
3:00 PM37 °FSunny.3 mph70%30.15 "Hg10 mi
2:30 PM37 °FSunny.2 mph70%30.18 "Hg10 mi
2:00 PM39 °FPassing clouds.3 mph65%30.18 "HgN/A
1:30 PM39 °FPartly sunny.No wind65%30.18 "HgN/A
1:00 PM37 °FPartly sunny.1 mph70%30.21 "HgN/A
12:30 PM37 °FPartly sunny.1 mph70%30.21 "HgN/A
12:00 PM37 °FPartly sunny.3 mph70%30.24 "HgN/A
11:30 AM36 °FPartly sunny.5 mph75%30.24 "HgN/A
11:00 AM34 °FPartly sunny.5 mph87%30.24 "HgN/A
10:30 AM32 °FPassing clouds.6 mph87%30.27 "HgN/A
10:00 AM30 °FSunny.5 mph93%30.27 "Hg10 mi
9:30 AM30 °FPassing clouds.5 mph93%30.27 "HgN/A
9:00 AM27 °FPassing clouds.3 mph100%30.27 "HgN/A
8:00 AM25 °FPassing clouds.3 mph86%30.27 "HgN/A
7:30 AM25 °FPassing clouds.3 mph93%30.27 "HgN/A
7:00 AM27 °FClear.3 mph93%30.27 "Hg10 mi
Weather by CustomWeather, © 2015

See weather overviewHow to use our weather pages